Nellis AFB, NV

5:24 AM PST on November 22, 2017 (GMT -0800)
Nellis Air Force Base

Weather History for KLSV - October, 2012

Change the Weather History Date:

Tuesday, October 30, 2012

  Actual Average Record
Temperature  
Mean Temperature 63 °F -  
Max Temperature 81 °F 70 °F 85 °F (2008)
Min Temperature 47 °F 47 °F 42 °F (2004)
Degree Days  
Heating Degree Days 2    
Growing Degree Days 13 (Base 50)    
Moisture  
Dew Point 29 °F    
Average Humidity 31    
Maximum Humidity 51    
Minimum Humidity 15    
Precipitation  
Precipitation 0.00 in - - ()
Sea Level Pressure  
Sea Level Pressure 30.08 in    
Wind  
Wind Speed 1 mph (NW)    
Max Wind Speed 5 mph    
Max Gust Speed -    
Visibility 10 miles    
Events      
Averages and records for this station are not official NWS values.
T = Trace of Precipitation, MM = Missing Value Source: NWS Daily Summary

Daily Weather History Graph

Daily Weather History Graph

Search for Another Location

Airport or City:

Trip Planner

Search our weather history database for the weather conditions in past years. The results will help you decide how hot, cold, wet, or windy it might be!

Date:

Astronomy

Oct. 30, 2012 Rise Set
Actual Time 7:01 AM PDT 5:45 PM PDT
Civil Twilight 6:35 AM PDT 6:11 PM PDT
Nautical Twilight 6:04 AM PDT 6:42 PM PDT
Astronomical Twilight 5:34 AM PDT 7:12 PM PDT
Moon 6:20 PM PDT (10/30) 7:49 AM PDT (10/30)
Length of Visible Light 11h 36m
Length of Day
10h 43m
Full, 99% of the Moon is Illuminated
Oct 30
Full
Nov 6
Last Quarter
Nov 13
New
Nov 20
First Quarter
Nov 28
Full

Hourly Weather History & Observations

Time (PDT) Temp. Dew Point Humidity Pressure Visibility Wind Dir Wind Speed Gust Speed Precip Events Conditions
12:55 AM 54.3 °F 28.8 °F 38% 30.10 in 10.0 mi Calm Calm - N/A   Clear
1:55 AM 54.1 °F 30.4 °F 40% 30.10 in 10.0 mi Calm Calm - N/A   Clear
2:55 AM 52.7 °F 29.8 °F 42% 30.10 in 10.0 mi Calm Calm - N/A   Clear
3:55 AM 52.7 °F 29.3 °F 41% 30.09 in 10.0 mi NW 3.5 mph - N/A   Clear
4:55 AM 49.8 °F 30.0 °F 47% 30.10 in 10.0 mi Calm Calm - N/A   Clear
5:55 AM 48.9 °F 30.6 °F 49% 30.12 in 10.0 mi Calm Calm - N/A   Clear
6:55 AM 47.8 °F 29.5 °F 49% 30.13 in 10.0 mi Calm Calm - N/A   Clear
7:55 AM 48.6 °F 31.1 °F 51% 30.15 in 10.0 mi Calm Calm - N/A   Clear
8:55 AM 54.5 °F 31.5 °F 42% 30.16 in 10.0 mi Calm Calm - N/A   Clear
9:55 AM 60.1 °F 30.0 °F 32% 30.16 in 10.0 mi Calm Calm - N/A   Clear
10:55 AM 66.7 °F 29.3 °F 25% 30.15 in 10.0 mi Calm Calm - N/A   Clear
11:55 AM 71.6 °F 29.3 °F 21% 30.12 in 10.0 mi SSW 3.5 mph - N/A   Clear
12:55 PM 75.2 °F 28.0 °F 18% 30.09 in 10.0 mi Calm Calm - N/A   Clear
1:55 PM 78.1 °F 28.8 °F 16% 30.05 in 10.0 mi WSW 3.5 mph - N/A   Clear
2:55 PM 79.0 °F 28.9 °F 16% 30.03 in 10.0 mi Calm Calm - N/A   Clear
3:55 PM 79.2 °F 28.6 °F 16% 30.01 in 10.0 mi Calm Calm - N/A   Clear
4:55 PM 79.0 °F 27.1 °F 15% 30.01 in 10.0 mi Calm Calm - N/A   Clear
5:55 PM 76.5 °F 28.9 °F 17% 30.01 in 10.0 mi SW 3.5 mph - N/A   Clear
6:55 PM 69.1 °F 30.2 °F 24% 30.02 in 10.0 mi NNE 3.5 mph - N/A   Clear
7:55 PM 66.2 °F 28.2 °F 24% 30.03 in 10.0 mi Calm Calm - N/A   Clear
8:55 PM 62.6 °F 29.7 °F 29% 30.04 in 10.0 mi Calm Calm - N/A   Clear
9:55 PM 60.1 °F 27.3 °F 29% 30.05 in 10.0 mi North 4.6 mph - N/A   Clear
10:55 PM 59.7 °F 28.6 °F 31% 30.05 in 10.0 mi Calm Calm - N/A   Clear
11:55 PM 55.9 °F 29.7 °F 37% 30.05 in 10.0 mi ENE 3.5 mph - N/A   Clear